Location: ???????
(55.3754°N, 39.3545°E)
Time: 10:46:52
(UTC+00:00)

Cosmos 1603 - Pass Details

Date: 14 April 2026
Orbit: 828 x 860 km, 71.0° (Epoch: 19 May)

Event Time Altitude Azimuth Distance (km) Brightness Sun altitude
Exits shadow 22:23:36 41° 252° (WSW) 1,212 4.2 -23.7°
Maximum altitude 22:25:24 60° 310° (NW) 969 4.0 -23.6°
Drops below altitude 10° 22:31:02 10° 31° (NNE) 2,486 7.2 -23.4°
Sets 22:33:33 0° 35° (NE) 3,430 8.1 -23.3°
